Time,TemperatureF,DewpointF,PressureIn,WindDirection,WindDirectionDegrees,WindSpeedMPH,WindSpeedGustMPH,Humidity,HourlyPrecipIn,Conditions,Clouds,dailyrainin,SoftwareType,DateUTC
2013-03-04 00:00:00,45.2,37.1,30.13,NW,309,17.0,21.0,73,0.00,,,0.00,WeatherCatV1.10B1784,2013-03-04 05:00:00,
2013-03-04 00:05:00,45.0,36.5,30.13,NW,306,16.0,21.0,72,0.00,,,0.00,WeatherCatV1.10B1784,2013-03-04 05:05:00,
2013-03-04 00:10:00,44.9,36.8,30.13,NW,315,19.0,20.0,73,0.00,,,0.00,WeatherCatV1.10B1784,2013-03-04 05:10:00,
2013-03-04 00:15:00,44.8,37.0,30.14,NW,306,18.0,23.0,74,0.00,,,0.00,WeatherCatV1.10B1784,2013-03-04 05:15:00,
2013-03-04 00:20:00,44.8,37.0,30.14,NW,304,19.0,19.0,74,0.00,,,0.00,WeatherCatV1.10B1784,2013-03-04 05:20:00,
2013-03-04 00:25:00,44.5,36.7,30.14,NW,315,17.0,18.0,74,0.00,,,0.00,WeatherCatV1.10B1784,2013-03-04 05:25:00,
2013-03-04 00:30:00,44.4,36.6,30.14,NW,317,17.0,20.0,74,0.00,,,0.00,WeatherCatV1.10B1784,2013-03-04 05:30:00,
2013-03-04 00:35:00,44.2,36.8,30.14,WNW,302,16.0,20.0,75,0.00,,,0.00,WeatherCatV1.10B1784,2013-03-04 05:35:00,
2013-03-04 00:40:00,44.1,36.7,30.14,NW,322,18.0,18.0,75,0.00,,,0.00,WeatherCatV1.10B1784,2013-03-04 05:40:00,
2013-03-04 00:45:00,43.9,36.5,30.15,NW,312,14.0,18.0,75,0.00,,,0.00,WeatherCatV1.10B1784,2013-03-04 05:45:00,
2013-03-04 00:50:00,44.1,37.4,30.15,NW,319,16.0,17.0,77,0.00,,,0.00,WeatherCatV1.10B1784,2013-03-04 05:50:00,
2013-03-04 00:55:00,44.0,37.3,30.15,NW,323,16.0,16.0,77,0.00,,,0.00,WeatherCatV1.10B1784,2013-03-04 05:55:00,
2013-03-04 01:00:00,44.2,37.5,30.14,NW,312,15.0,18.0,77,0.00,,,0.00,WeatherCatV1.10B1784,2013-03-04 06:00:00,
2013-03-04 01:05:00,43.9,37.2,30.14,NW,311,13.0,16.0,77,0.00,,,0.00,WeatherCatV1.10B1784,2013-03-04 06:05:00,
2013-03-04 01:10:00,43.9,37.2,30.14,NW,315,14.0,16.0,77,0.00,,,0.00,WeatherCatV1.10B1784,2013-03-04 06:10:00,
2013-03-04 01:15:00,44.0,37.3,30.14,NW,309,16.0,18.0,77,0.00,,,0.00,WeatherCatV1.10B1784,2013-03-04 06:15:00,
2013-03-04 01:20:00,43.8,37.1,30.14,WNW,302,16.0,17.0,77,0.00,,,0.00,WeatherCatV1.10B1784,2013-03-04 06:20:00,
2013-03-04 01:25:00,44.0,37.3,30.14,NW,306,14.0,16.0,77,0.00,,,0.00,WeatherCatV1.10B1784,2013-03-04 06:25:00,
2013-03-04 01:30:00,43.7,37.0,30.14,WNW,301,12.0,17.0,77,0.00,,,0.00,WeatherCatV1.10B1784,2013-03-04 06:30:00,
2013-03-04 01:35:00,43.4,36.7,30.14,NW,308,11.0,13.0,77,0.00,,,0.00,WeatherCatV1.10B1784,2013-03-04 06:35:00,
2013-03-04 01:40:00,43.4,36.7,30.14,NW,304,11.0,14.0,77,0.00,,,0.00,WeatherCatV1.10B1784,2013-03-04 06:40:00,
2013-03-04 01:45:00,43.5,36.8,30.13,NW,314,12.0,14.0,77,0.00,,,0.00,WeatherCatV1.10B1784,2013-03-04 06:45:00,
2013-03-04 01:50:00,43.7,37.0,30.13,NW,308,11.0,12.0,77,0.00,,,0.00,WeatherCatV1.10B1784,2013-03-04 06:50:00,
2013-03-04 01:55:00,43.7,37.0,30.13,NW,317,10.0,11.0,77,0.00,,,0.00,WeatherCatV1.10B1784,2013-03-04 06:55:00,
2013-03-04 02:00:00,43.6,36.5,30.13,NW,305,12.0,14.0,76,0.00,,,0.00,WeatherCatV1.10B1784,2013-03-04 07:00:00,
2013-03-04 02:05:00,43.6,36.9,30.13,WNW,298,11.0,13.0,77,0.00,,,0.00,WeatherCatV1.10B1784,2013-03-04 07:05:00,
2013-03-04 02:10:00,43.3,36.6,30.13,WNW,294,9.0,12.0,77,0.00,,,0.00,WeatherCatV1.10B1784,2013-03-04 07:10:00,
2013-03-04 02:15:00,43.1,36.4,30.12,WNW,295,9.0,12.0,77,0.00,,,0.00,WeatherCatV1.10B1784,2013-03-04 07:15:00,
2013-03-04 02:20:00,43.0,36.3,30.12,NW,304,10.0,13.0,77,0.00,,,0.00,WeatherCatV1.10B1784,2013-03-04 07:20:00,
2013-03-04 02:25:00,43.2,36.8,30.12,NW,304,11.0,12.0,78,0.00,,,0.00,WeatherCatV1.10B1784,2013-03-04 07:25:00,
2013-03-04 02:30:00,43.5,37.1,30.12,NW,307,12.0,12.0,78,0.00,,,0.00,WeatherCatV1.10B1784,2013-03-04 07:30:00,
2013-03-04 02:35:00,43.4,36.7,30.12,NW,315,12.0,14.0,77,0.00,,,0.00,WeatherCatV1.10B1784,2013-03-04 07:35:00,
2013-03-04 02:40:00,43.4,36.7,30.12,NW,309,12.0,13.0,77,0.00,,,0.00,WeatherCatV1.10B1784,2013-03-04 07:40:00,
2013-03-04 02:45:00,43.5,36.8,30.12,NW,305,11.0,13.0,77,0.00,,,0.00,WeatherCatV1.10B1784,2013-03-04 07:45:00,
2013-03-04 02:50:00,43.5,36.8,30.12,NW,311,11.0,13.0,77,0.00,,,0.00,WeatherCatV1.10B1784,2013-03-04 07:50:00,
2013-03-04 02:55:00,43.5,36.8,30.12,NW,309,11.0,13.0,77,0.00,,,0.00,WeatherCatV1.10B1784,2013-03-04 07:55:00,
2013-03-04 03:00:00,43.4,36.7,30.12,NW,313,11.0,13.0,77,0.00,,,0.00,WeatherCatV1.10B1784,2013-03-04 08:00:00,
2013-03-04 03:05:00,43.3,36.6,30.12,WNW,300,11.0,13.0,77,0.00,,,0.00,WeatherCatV1.10B1784,2013-03-04 08:05:00,
2013-03-04 03:10:00,43.3,36.6,30.12,NW,306,11.0,13.0,77,0.00,,,0.00,WeatherCatV1.10B1784,2013-03-04 08:10:00,
2013-03-04 03:15:00,43.3,36.9,30.11,NW,304,11.0,13.0,78,0.00,,,0.00,WeatherCatV1.10B1784,2013-03-04 08:15:00,
2013-03-04 03:20:00,43.3,36.9,30.11,WNW,300,11.0,12.0,78,0.00,,,0.00,WeatherCatV1.10B1784,2013-03-04 08:20:00,
2013-03-04 03:25:00,43.3,36.9,30.11,NW,307,12.0,13.0,78,0.00,,,0.00,WeatherCatV1.10B1784,2013-03-04 08:25:00,
2013-03-04 03:30:00,43.2,36.8,30.11,WNW,303,9.0,12.0,78,0.00,,,0.00,WeatherCatV1.10B1784,2013-03-04 08:30:00,
2013-03-04 03:35:00,43.2,36.8,30.11,NW,305,12.0,13.0,78,0.00,,,0.00,WeatherCatV1.10B1784,2013-03-04 08:35:00,
2013-03-04 03:40:00,43.1,36.7,30.11,NW,305,10.0,11.0,78,0.00,,,0.00,WeatherCatV1.10B1784,2013-03-04 08:40:00,
2013-03-04 03:45:00,43.3,37.2,30.11,NW,306,12.0,14.0,79,0.00,,,0.00,WeatherCatV1.10B1784,2013-03-04 08:45:00,
2013-03-04 03:50:00,43.1,36.7,30.11,NW,313,11.0,13.0,78,0.00,,,0.00,WeatherCatV1.10B1784,2013-03-04 08:50:00,
2013-03-04 03:55:00,43.1,36.7,30.11,NW,316,12.0,14.0,78,0.00,,,0.00,WeatherCatV1.10B1784,2013-03-04 08:55:00,
2013-03-04 04:00:00,43.2,36.8,30.11,NNW,331,13.0,14.0,78,0.00,,,0.00,WeatherCatV1.10B1784,2013-03-04 09:00:00,
2013-03-04 04:05:00,43.4,37.0,30.11,NW,321,14.0,16.0,78,0.00,,,0.00,WeatherCatV1.10B1784,2013-03-04 09:05:00,
2013-03-04 04:10:00,43.3,36.6,30.11,NNW,327,13.0,14.0,77,0.00,,,0.00,WeatherCatV1.10B1784,2013-03-04 09:10:00,
2013-03-04 04:15:00,43.3,36.6,30.11,NW,315,16.0,16.0,77,0.00,,,0.00,WeatherCatV1.10B1784,2013-03-04 09:15:00,
2013-03-04 04:20:00,43.4,36.7,30.11,NW,317,14.0,14.0,77,0.00,,,0.00,WeatherCatV1.10B1784,2013-03-04 09:20:00,
2013-03-04 04:25:00,43.5,36.8,30.11,NNW,340,9.0,15.0,77,0.00,,,0.00,WeatherCatV1.10B1784,2013-03-04 09:25:00,
2013-03-04 04:30:00,43.3,35.9,30.11,NNW,332,12.0,17.0,75,0.00,,,0.00,WeatherCatV1.10B1784,2013-03-04 09:30:00,
2013-03-04 04:35:00,43.5,36.4,30.11,NNW,346,9.0,14.0,76,0.00,,,0.00,WeatherCatV1.10B1784,2013-03-04 09:35:00,
2013-03-04 04:40:00,43.5,36.4,30.11,NNW,347,10.0,11.0,76,0.00,,,0.00,WeatherCatV1.10B1784,2013-03-04 09:40:00,
2013-03-04 04:45:00,43.5,36.8,30.11,NNW,340,14.0,14.0,77,0.00,,,0.00,WeatherCatV1.10B1784,2013-03-04 09:45:00,
2013-03-04 04:50:00,43.4,36.3,30.11,North,355,11.0,16.0,76,0.00,,,0.00,WeatherCatV1.10B1784,2013-03-04 09:50:00,
2013-03-04 04:55:00,43.3,35.9,30.11,NNW,339,10.0,14.0,75,0.00,,,0.00,WeatherCatV1.10B1784,2013-03-04 09:55:00,
2013-03-04 05:00:00,43.3,35.9,30.12,NNW,346,9.0,14.0,75,0.00,,,0.00,WeatherCatV1.10B1784,2013-03-04 10:00:00,
2013-03-04 05:05:00,43.3,36.3,30.12,NNW,340,10.0,10.0,76,0.00,,,0.00,WeatherCatV1.10B1784,2013-03-04 10:05:00,
2013-03-04 05:10:00,43.3,36.3,30.12,NNW,340,11.0,13.0,76,0.00,,,0.00,WeatherCatV1.10B1784,2013-03-04 10:10:00,
2013-03-04 05:15:00,43.3,36.3,30.12,NNW,348,9.0,11.0,76,0.00,,,0.00,WeatherCatV1.10B1784,2013-03-04 10:15:00,
2013-03-04 05:20:00,43.3,36.3,30.12,NNW,344,11.0,12.0,76,0.00,,,0.00,WeatherCatV1.10B1784,2013-03-04 10:20:00,
2013-03-04 05:25:00,43.3,36.3,30.12,NNW,338,9.0,12.0,76,0.00,,,0.00,WeatherCatV1.10B1784,2013-03-04 10:25:00,
2013-03-04 05:30:00,43.3,36.3,30.13,NNW,329,12.0,12.0,76,0.00,,,0.00,WeatherCatV1.10B1784,2013-03-04 10:30:00,
2013-03-04 05:35:00,43.3,36.3,30.13,NW,325,10.0,13.0,76,0.00,,,0.00,WeatherCatV1.10B1784,2013-03-04 10:35:00,
2013-03-04 05:40:00,43.4,36.3,30.13,NW,323,10.0,11.0,76,0.00,,,0.00,WeatherCatV1.10B1784,2013-03-04 10:40:00,
2013-03-04 05:45:00,43.3,35.9,30.14,NW,312,12.0,14.0,75,0.00,,,0.00,WeatherCatV1.10B1784,2013-03-04 10:45:00,
2013-03-04 05:50:00,43.1,35.7,30.14,NW,315,11.0,12.0,75,0.00,,,0.00,WeatherCatV1.10B1784,2013-03-04 10:50:00,
2013-03-04 05:55:00,42.8,35.8,30.14,NW,313,8.0,12.0,76,0.00,,,0.00,WeatherCatV1.10B1784,2013-03-04 10:55:00,
2013-03-04 06:00:00,42.5,35.5,30.14,NW,306,9.0,10.0,76,0.00,,,0.00,WeatherCatV1.10B1784,2013-03-04 11:00:00,
2013-03-04 06:05:00,42.2,35.2,30.14,NW,310,6.0,10.0,76,0.00,,,0.00,WeatherCatV1.10B1784,2013-03-04 11:05:00,
2013-03-04 06:10:00,42.0,35.6,30.14,NW,310,7.0,9.0,78,0.00,,,0.00,WeatherCatV1.10B1784,2013-03-04 11:10:00,
2013-03-04 06:15:00,41.9,35.5,30.14,NW,315,6.0,8.0,78,0.00,,,0.00,WeatherCatV1.10B1784,2013-03-04 11:15:00,
2013-03-04 06:20:00,41.7,35.4,30.14,NW,315,7.0,7.0,78,0.00,,,0.00,WeatherCatV1.10B1784,2013-03-04 11:20:00,
2013-03-04 06:25:00,41.8,35.8,30.14,NW,308,6.0,10.0,79,0.00,,,0.00,WeatherCatV1.10B1784,2013-03-04 11:25:00,
2013-03-04 06:30:00,41.5,35.2,30.15,NW,309,7.0,10.0,78,0.00,,,0.00,WeatherCatV1.10B1784,2013-03-04 11:30:00,
2013-03-04 06:35:00,41.5,35.5,30.15,NW,308,7.0,9.0,79,0.00,,,0.00,WeatherCatV1.10B1784,2013-03-04 11:35:00,
2013-03-04 06:40:00,41.5,35.5,30.15,NW,311,9.0,9.0,79,0.00,,,0.00,WeatherCatV1.10B1784,2013-03-04 11:40:00,
2013-03-04 06:45:00,41.5,35.8,30.15,NW,315,6.0,10.0,80,0.00,,,0.00,WeatherCatV1.10B1784,2013-03-04 11:45:00,
2013-03-04 06:50:00,41.6,35.9,30.15,NW,313,7.0,10.0,80,0.00,,,0.00,WeatherCatV1.10B1784,2013-03-04 11:50:00,
2013-03-04 06:55:00,41.7,36.0,30.15,NW,325,7.0,10.0,80,0.00,,,0.00,WeatherCatV1.10B1784,2013-03-04 11:55:00,
2013-03-04 07:00:00,41.8,36.1,30.16,NW,315,7.0,10.0,80,0.00,,,0.00,WeatherCatV1.10B1784,2013-03-04 12:00:00,
2013-03-04 07:05:00,42.1,36.7,30.16,NW,311,9.0,11.0,81,0.00,,,0.00,WeatherCatV1.10B1784,2013-03-04 12:05:00,
2013-03-04 07:10:00,42.1,36.7,30.16,NW,309,9.0,10.0,81,0.00,,,0.00,WeatherCatV1.10B1784,2013-03-04 12:10:00,
2013-03-04 07:15:00,42.1,36.7,30.17,NW,309,9.0,10.0,81,0.00,,,0.00,WeatherCatV1.10B1784,2013-03-04 12:15:00,
2013-03-04 07:20:00,42.3,36.9,30.17,NW,305,9.0,10.0,81,0.00,,,0.00,WeatherCatV1.10B1784,2013-03-04 12:20:00,
2013-03-04 07:25:00,42.7,37.3,30.17,NW,314,10.0,10.0,81,0.00,,,0.00,WeatherCatV1.10B1784,2013-03-04 12:25:00,
2013-03-04 07:30:00,42.9,36.8,30.17,NW,315,10.0,10.0,79,0.00,,,0.00,WeatherCatV1.10B1784,2013-03-04 12:30:00,
2013-03-04 07:35:00,43.3,36.6,30.17,NW,319,12.0,12.0,77,0.00,,,0.00,WeatherCatV1.10B1784,2013-03-04 12:35:00,
2013-03-04 07:40:00,43.9,37.2,30.17,NNW,340,12.0,12.0,77,0.00,,,0.00,WeatherCatV1.10B1784,2013-03-04 12:40:00,
2013-03-04 07:45:00,44.4,37.3,30.17,NNW,331,9.0,11.0,76,0.00,,,0.00,WeatherCatV1.10B1784,2013-03-04 12:45:00,
2013-03-04 07:50:00,44.7,35.5,30.17,NW,325,10.0,14.0,70,0.00,,,0.00,WeatherCatV1.10B1784,2013-03-04 12:50:00,
2013-03-04 07:55:00,45.5,36.7,30.17,NNW,342,15.0,15.0,71,0.00,,,0.00,WeatherCatV1.10B1784,2013-03-04 12:55:00,
2013-03-04 08:00:00,46.1,34.6,30.18,NNW,336,13.0,16.0,64,0.00,,,0.00,WeatherCatV1.10B1784,2013-03-04 13:00:00,
2013-03-04 08:05:00,46.4,34.5,30.18,NNW,332,17.0,18.0,63,0.00,,,0.00,WeatherCatV1.10B1784,2013-03-04 13:05:00,
2013-03-04 08:10:00,46.6,35.1,30.18,NNW,333,15.0,18.0,64,0.00,,,0.00,WeatherCatV1.10B1784,2013-03-04 13:10:00,
2013-03-04 08:15:00,46.5,33.8,30.18,North,351,15.0,19.0,61,0.00,,,0.00,WeatherCatV1.10B1784,2013-03-04 13:15:00,
2013-03-04 08:20:00,46.4,33.7,30.18,NNW,331,18.0,18.0,61,0.00,,,0.00,WeatherCatV1.10B1784,2013-03-04 13:20:00,
2013-03-04 08:25:00,46.3,34.8,30.18,NNW,329,16.0,18.0,64,0.00,,,0.00,WeatherCatV1.10B1784,2013-03-04 13:25:00,
2013-03-04 08:30:00,46.3,33.2,30.19,NNW,335,10.0,19.0,60,0.00,,,0.00,WeatherCatV1.10B1784,2013-03-04 13:30:00,
2013-03-04 08:35:00,46.9,33.8,30.19,NNW,345,19.0,19.0,60,0.00,,,0.00,WeatherCatV1.10B1784,2013-03-04 13:35:00,
2013-03-04 08:40:00,47.4,34.6,30.19,NNW,343,13.0,20.0,61,0.00,,,0.00,WeatherCatV1.10B1784,2013-03-04 13:40:00,
2013-03-04 08:45:00,47.7,33.2,30.20,North,355,13.0,18.0,57,0.00,,,0.00,WeatherCatV1.10B1784,2013-03-04 13:45:00,
2013-03-04 08:50:00,47.9,33.4,30.20,NNW,342,14.0,16.0,57,0.00,,,0.00,WeatherCatV1.10B1784,2013-03-04 13:50:00,
2013-03-04 08:55:00,47.9,33.0,30.20,North,0,15.0,18.0,56,0.00,,,0.00,WeatherCatV1.10B1784,2013-03-04 13:55:00,
2013-03-04 09:00:00,48.2,34.6,30.20,NNW,333,12.0,15.0,59,0.00,,,0.00,WeatherCatV1.10B1784,2013-03-04 14:00:00,
2013-03-04 09:05:00,48.4,33.4,30.20,NNW,346,15.0,20.0,56,0.00,,,0.00,WeatherCatV1.10B1784,2013-03-04 14:05:00,
2013-03-04 09:10:00,48.5,33.5,30.20,NNW,336,16.0,19.0,56,0.00,,,0.00,WeatherCatV1.10B1784,2013-03-04 14:10:00,
2013-03-04 09:15:00,48.8,34.2,30.21,NNW,337,16.0,19.0,57,0.00,,,0.00,WeatherCatV1.10B1784,2013-03-04 14:15:00,
2013-03-04 09:20:00,48.9,33.9,30.21,North,350,17.0,20.0,56,0.00,,,0.00,WeatherCatV1.10B1784,2013-03-04 14:20:00,
2013-03-04 09:25:00,48.9,32.5,30.21,NNW,344,13.0,19.0,53,0.00,,,0.00,WeatherCatV1.10B1784,2013-03-04 14:25:00,
2013-03-04 09:30:00,49.1,33.2,30.21,NNW,344,11.0,18.0,54,0.00,,,0.00,WeatherCatV1.10B1784,2013-03-04 14:30:00,
2013-03-04 09:35:00,49.2,31.9,30.21,NNW,346,18.0,20.0,51,0.00,,,0.00,WeatherCatV1.10B1784,2013-03-04 14:35:00,
2013-03-04 09:40:00,49.5,31.1,30.21,NNW,342,14.0,16.0,49,0.00,,,0.00,WeatherCatV1.10B1784,2013-03-04 14:40:00,
2013-03-04 09:45:00,49.8,30.4,30.21,North,355,12.0,17.0,47,0.00,,,0.00,WeatherCatV1.10B1784,2013-03-04 14:45:00,
2013-03-04 09:50:00,49.8,32.4,30.21,NNW,340,15.0,20.0,51,0.00,,,0.00,WeatherCatV1.10B1784,2013-03-04 14:50:00,
2013-03-04 09:55:00,50.1,33.2,30.21,NNW,340,13.0,15.0,52,0.00,,,0.00,WeatherCatV1.10B1784,2013-03-04 14:55:00,
2013-03-04 10:00:00,50.2,32.3,30.21,North,355,16.0,18.0,50,0.00,,,0.00,WeatherCatV1.10B1784,2013-03-04 15:00:00,
2013-03-04 10:05:00,50.5,30.5,30.21,North,355,13.0,19.0,46,0.00,,,0.00,WeatherCatV1.10B1784,2013-03-04 15:05:00,
2013-03-04 10:10:00,50.7,30.1,30.21,NNW,341,12.0,16.0,45,0.00,,,0.00,WeatherCatV1.10B1784,2013-03-04 15:10:00,
2013-03-04 10:15:00,50.8,30.2,30.21,North,0,16.0,19.0,45,0.00,,,0.00,WeatherCatV1.10B1784,2013-03-04 15:15:00,
2013-03-04 10:20:00,50.9,30.9,30.21,NNW,342,13.0,19.0,46,0.00,,,0.00,WeatherCatV1.10B1784,2013-03-04 15:20:00,
2013-03-04 10:25:00,51.2,30.6,30.21,North,5,13.0,19.0,45,0.00,,,0.00,WeatherCatV1.10B1784,2013-03-04 15:25:00,
2013-03-04 10:30:00,51.3,31.2,30.20,North,355,13.0,16.0,46,0.00,,,0.00,WeatherCatV1.10B1784,2013-03-04 15:30:00,
2013-03-04 10:35:00,51.5,29.8,30.20,NNW,335,14.0,16.0,43,0.00,,,0.00,WeatherCatV1.10B1784,2013-03-04 15:35:00,
2013-03-04 10:40:00,51.7,31.6,30.20,North,350,14.0,16.0,46,0.00,,,0.00,WeatherCatV1.10B1784,2013-03-04 15:40:00,
2013-03-04 10:45:00,51.5,29.8,30.20,NNW,332,19.0,21.0,43,0.00,,,0.00,WeatherCatV1.10B1784,2013-03-04 15:45:00,
2013-03-04 10:50:00,51.6,28.1,30.20,NNW,346,21.0,23.0,40,0.00,,,0.00,WeatherCatV1.10B1784,2013-03-04 15:50:00,
2013-03-04 10:55:00,52.0,30.2,30.20,NNW,333,19.0,20.0,43,0.00,,,0.00,WeatherCatV1.10B1784,2013-03-04 15:55:00,
2013-03-04 11:00:00,51.9,30.1,30.19,NNW,346,16.0,19.0,43,0.00,,,0.00,WeatherCatV1.10B1784,2013-03-04 16:00:00,
2013-03-04 11:05:00,52.2,30.4,30.19,NNW,342,13.0,19.0,43,0.00,,,0.00,WeatherCatV1.10B1784,2013-03-04 16:05:00,
2013-03-04 11:10:00,52.4,25.6,30.19,North,355,10.0,23.0,35,0.00,,,0.00,WeatherCatV1.10B1784,2013-03-04 16:10:00,
2013-03-04 11:15:00,53.0,28.1,30.19,NNW,336,16.0,20.0,38,0.00,,,0.00,WeatherCatV1.10B1784,2013-03-04 16:15:00,
2013-03-04 11:20:00,52.9,28.0,30.19,NNW,338,17.0,17.0,38,0.00,,,0.00,WeatherCatV1.10B1784,2013-03-04 16:20:00,
2013-03-04 11:25:00,53.0,31.1,30.19,NNW,343,11.0,16.0,43,0.00,,,0.00,WeatherCatV1.10B1784,2013-03-04 16:25:00,
2013-03-04 11:30:00,53.6,28.0,30.18,North,0,9.0,20.0,37,0.00,,,0.00,WeatherCatV1.10B1784,2013-03-04 16:30:00,
2013-03-04 11:35:00,54.6,27.5,30.18,NNW,339,10.0,12.0,35,0.00,,,0.00,WeatherCatV1.10B1784,2013-03-04 16:35:00,
2013-03-04 11:40:00,54.4,29.3,30.18,North,355,13.0,14.0,38,0.00,,,0.00,WeatherCatV1.10B1784,2013-03-04 16:40:00,
2013-03-04 11:45:00,53.9,33.1,30.18,NNW,344,12.0,13.0,45,0.00,,,0.00,WeatherCatV1.10B1784,2013-03-04 16:45:00,
2013-03-04 11:50:00,54.7,26.9,30.18,NNW,340,12.0,17.0,34,0.00,,,0.00,WeatherCatV1.10B1784,2013-03-04 16:50:00,
2013-03-04 11:55:00,55.1,27.9,30.18,NNE,18,16.0,16.0,35,0.00,,,0.00,WeatherCatV1.10B1784,2013-03-04 16:55:00,
2013-03-04 12:00:00,55.1,28.6,30.18,NNE,22,6.0,12.0,36,0.00,,,0.00,WeatherCatV1.10B1784,2013-03-04 17:00:00,
2013-03-04 12:05:00,55.2,27.3,30.18,NNE,28,6.0,12.0,34,0.00,,,0.00,WeatherCatV1.10B1784,2013-03-04 17:05:00,
2013-03-04 12:10:00,55.6,28.4,30.18,NNW,336,12.0,14.0,35,0.00,,,0.00,WeatherCatV1.10B1784,2013-03-04 17:10:00,
2013-03-04 12:15:00,55.9,27.9,30.17,NE,49,13.0,16.0,34,0.00,,,0.00,WeatherCatV1.10B1784,2013-03-04 17:15:00,
2013-03-04 12:20:00,55.9,30.0,30.17,NNE,19,11.0,15.0,37,0.00,,,0.00,WeatherCatV1.10B1784,2013-03-04 17:20:00,
2013-03-04 12:25:00,56.3,30.4,30.17,NE,40,4.0,15.0,37,0.00,,,0.00,WeatherCatV1.10B1784,2013-03-04 17:25:00,
2013-03-04 12:30:00,56.5,29.2,30.17,NNE,14,14.0,19.0,35,0.00,,,0.00,WeatherCatV1.10B1784,2013-03-04 17:30:00,
2013-03-04 12:35:00,56.3,29.0,30.17,NNE,28,9.0,15.0,35,0.00,,,0.00,WeatherCatV1.10B1784,2013-03-04 17:35:00,
2013-03-04 12:40:00,56.9,30.2,30.17,North,5,16.0,16.0,36,0.00,,,0.00,WeatherCatV1.10B1784,2013-03-04 17:40:00,
2013-03-04 12:45:00,57.1,31.1,30.15,NNE,12,10.0,10.0,37,0.00,,,0.00,WeatherCatV1.10B1784,2013-03-04 17:45:00,
2013-03-04 12:50:00,56.9,30.2,30.15,NNE,23,16.0,18.0,36,0.00,,,0.00,WeatherCatV1.10B1784,2013-03-04 17:50:00,
2013-03-04 12:55:00,56.7,29.4,30.15,NNE,12,11.0,16.0,35,0.00,,,0.00,WeatherCatV1.10B1784,2013-03-04 17:55:00,
2013-03-04 13:00:00,57.3,29.2,30.15,North,5,15.0,16.0,34,0.00,,,0.00,WeatherCatV1.10B1784,2013-03-04 18:00:00,
2013-03-04 13:05:00,57.3,30.6,30.15,NNE,19,9.0,16.0,36,0.00,,,0.00,WeatherCatV1.10B1784,2013-03-04 18:05:00,
2013-03-04 13:10:00,57.6,29.4,30.15,ENE,61,12.0,13.0,34,0.00,,,0.00,WeatherCatV1.10B1784,2013-03-04 18:10:00,
2013-03-04 13:15:00,57.8,31.0,30.15,North,355,4.0,12.0,36,0.00,,,0.00,WeatherCatV1.10B1784,2013-03-04 18:15:00,
2013-03-04 13:20:00,57.7,28.0,30.15,NE,56,12.0,14.0,32,0.00,,,0.00,WeatherCatV1.10B1784,2013-03-04 18:20:00,
2013-03-04 13:25:00,57.7,28.8,30.15,NNE,26,6.0,11.0,33,0.00,,,0.00,WeatherCatV1.10B1784,2013-03-04 18:25:00,
2013-03-04 13:34:00,58.0,29.8,30.14,North,5,12.0,15.0,34,0.00,,,0.00,WeatherCatV1.10B1784,2013-03-04 18:34:00,
2013-03-04 13:39:00,57.6,31.5,30.14,NNE,20,11.0,17.0,37,0.00,,,0.00,WeatherCatV1.10B1784,2013-03-04 18:39:00,
2013-03-04 13:44:00,57.7,31.6,30.13,NE,45,7.0,16.0,37,0.00,,,0.00,WeatherCatV1.10B1784,2013-03-04 18:44:00,
2013-03-04 13:49:00,58.0,31.2,30.13,NNE,17,12.0,12.0,36,0.00,,,0.00,WeatherCatV1.10B1784,2013-03-04 18:49:00,
2013-03-04 13:54:00,57.7,31.6,30.13,NE,40,10.0,14.0,37,0.00,,,0.00,WeatherCatV1.10B1784,2013-03-04 18:54:00,
2013-03-04 13:59:00,58.0,34.4,30.13,NNE,28,5.0,11.0,41,0.00,,,0.00,WeatherCatV1.10B1784,2013-03-04 18:59:00,
2013-03-04 14:04:00,58.5,33.0,30.13,North,10,11.0,15.0,38,0.00,,,0.00,WeatherCatV1.10B1784,2013-03-04 19:04:00,
2013-03-04 14:09:00,58.8,34.5,30.13,NNE,17,11.0,13.0,40,0.00,,,0.00,WeatherCatV1.10B1784,2013-03-04 19:09:00,
2013-03-04 14:14:00,58.4,32.9,30.12,NE,37,11.0,12.0,38,0.00,,,0.00,WeatherCatV1.10B1784,2013-03-04 19:14:00,
2013-03-04 14:19:00,58.8,32.6,30.12,NE,34,7.0,15.0,37,0.00,,,0.00,WeatherCatV1.10B1784,2013-03-04 19:19:00,
2013-03-04 14:24:00,58.8,34.5,30.12,NNE,19,13.0,13.0,40,0.00,,,0.00,WeatherCatV1.10B1784,2013-03-04 19:24:00,
2013-03-04 14:29:00,58.6,31.0,30.12,NE,40,9.0,13.0,35,0.00,,,0.00,WeatherCatV1.10B1784,2013-03-04 19:29:00,
2013-03-04 14:34:00,59.1,34.2,30.12,North,9,11.0,11.0,39,0.00,,,0.00,WeatherCatV1.10B1784,2013-03-04 19:34:00,
2013-03-04 14:39:00,59.3,34.3,30.12,NE,42,6.0,12.0,39,0.00,,,0.00,WeatherCatV1.10B1784,2013-03-04 19:39:00,
2013-03-04 14:44:00,59.1,33.5,30.12,NE,36,6.0,12.0,38,0.00,,,0.00,WeatherCatV1.10B1784,2013-03-04 19:44:00,
2013-03-04 14:49:00,59.4,34.4,30.12,NE,34,16.0,16.0,39,0.00,,,0.00,WeatherCatV1.10B1784,2013-03-04 19:49:00,
2013-03-04 14:54:00,59.7,34.7,30.12,NNE,26,7.0,14.0,39,0.00,,,0.00,WeatherCatV1.10B1784,2013-03-04 19:54:00,
2013-03-04 14:59:00,59.5,34.5,30.11,NE,53,5.0,13.0,39,0.00,,,0.00,WeatherCatV1.10B1784,2013-03-04 19:59:00,
2013-03-04 15:04:00,59.4,35.7,30.11,NE,44,4.0,12.0,41,0.00,,,0.00,WeatherCatV1.10B1784,2013-03-04 20:04:00,
2013-03-04 15:09:00,59.1,34.8,30.11,NNE,24,11.0,11.0,40,0.00,,,0.00,WeatherCatV1.10B1784,2013-03-04 20:09:00,
2013-03-04 15:14:00,59.3,37.4,30.12,ENE,66,4.0,11.0,44,0.00,,,0.00,WeatherCatV1.10B1784,2013-03-04 20:14:00,
2013-03-04 15:19:00,59.2,37.3,30.12,NNE,32,8.0,10.0,44,0.00,,,0.00,WeatherCatV1.10B1784,2013-03-04 20:19:00,
2013-03-04 15:24:00,58.8,38.6,30.12,NE,46,4.0,9.0,47,0.00,,,0.00,WeatherCatV1.10B1784,2013-03-04 20:24:00,
2013-03-04 15:29:00,59.1,40.0,30.12,NE,50,11.0,13.0,49,0.00,,,0.00,WeatherCatV1.10B1784,2013-03-04 20:29:00,
2013-03-04 15:34:00,58.8,40.2,30.12,NNE,21,10.0,11.0,50,0.00,,,0.00,WeatherCatV1.10B1784,2013-03-04 20:34:00,
2013-03-04 15:39:00,59.8,39.5,30.12,NNE,24,4.0,12.0,47,0.00,,,0.00,WeatherCatV1.10B1784,2013-03-04 20:39:00,
2013-03-04 15:44:00,60.6,39.1,30.11,North,5,9.0,15.0,45,0.00,,,0.00,WeatherCatV1.10B1784,2013-03-04 20:44:00,
2013-03-04 15:49:00,60.3,40.0,30.11,ENE,57,5.0,14.0,47,0.00,,,0.00,WeatherCatV1.10B1784,2013-03-04 20:49:00,
2013-03-04 15:54:00,59.9,40.7,30.11,NE,36,5.0,11.0,49,0.00,,,0.00,WeatherCatV1.10B1784,2013-03-04 20:54:00,
2013-03-04 15:59:00,59.5,39.8,30.11,NE,51,5.0,12.0,48,0.00,,,0.00,WeatherCatV1.10B1784,2013-03-04 20:59:00,
2013-03-04 16:04:00,59.8,40.1,30.11,NE,48,7.0,11.0,48,0.00,,,0.00,WeatherCatV1.10B1784,2013-03-04 21:04:00,
2013-03-04 16:09:00,59.6,40.9,30.11,NE,42,5.0,5.0,50,0.00,,,0.00,WeatherCatV1.10B1784,2013-03-04 21:09:00,
2013-03-04 16:14:00,59.3,41.2,30.11,NE,34,9.0,11.0,51,0.00,,,0.00,WeatherCatV1.10B1784,2013-03-04 21:14:00,
2013-03-04 16:19:00,59.4,39.7,30.11,NNE,19,9.0,11.0,48,0.00,,,0.00,WeatherCatV1.10B1784,2013-03-04 21:19:00,
2013-03-04 16:24:00,59.5,39.3,30.11,NE,51,11.0,13.0,47,0.00,,,0.00,WeatherCatV1.10B1784,2013-03-04 21:24:00,
2013-03-04 16:29:00,59.4,41.8,30.11,NE,34,4.0,10.0,52,0.00,,,0.00,WeatherCatV1.10B1784,2013-03-04 21:29:00,
2013-03-04 16:34:00,59.5,41.4,30.11,ENE,59,5.0,9.0,51,0.00,,,0.00,WeatherCatV1.10B1784,2013-03-04 21:34:00,
2013-03-04 16:39:00,59.0,40.9,30.11,NNE,29,3.0,8.0,51,0.00,,,0.00,WeatherCatV1.10B1784,2013-03-04 21:39:00,
2013-03-04 16:44:00,59.0,41.4,30.12,ENE,72,7.0,9.0,52,0.00,,,0.00,WeatherCatV1.10B1784,2013-03-04 21:44:00,
2013-03-04 16:49:00,59.1,42.0,30.12,NE,49,4.0,7.0,53,0.00,,,0.00,WeatherCatV1.10B1784,2013-03-04 21:49:00,
2013-03-04 16:54:00,59.2,42.1,30.12,NNE,30,6.0,9.0,53,0.00,,,0.00,WeatherCatV1.10B1784,2013-03-04 21:54:00,
2013-03-04 16:59:00,59.9,42.2,30.12,NE,34,9.0,10.0,52,0.00,,,0.00,WeatherCatV1.10B1784,2013-03-04 21:59:00,
2013-03-04 17:04:00,60.1,41.9,30.12,NNE,30,11.0,13.0,51,0.00,,,0.00,WeatherCatV1.10B1784,2013-03-04 22:04:00,
2013-03-04 17:09:00,60.1,41.9,30.12,NE,39,3.0,10.0,51,0.00,,,0.00,WeatherCatV1.10B1784,2013-03-04 22:09:00,
2013-03-04 17:14:00,60.0,42.3,30.12,NNE,28,7.0,11.0,52,0.00,,,0.00,WeatherCatV1.10B1784,2013-03-04 22:14:00,
2013-03-04 17:19:00,60.4,42.7,30.12,NNE,26,4.0,4.0,52,0.00,,,0.00,WeatherCatV1.10B1784,2013-03-04 22:19:00,
2013-03-04 17:24:00,60.3,41.1,30.12,NE,35,2.0,4.0,49,0.00,,,0.00,WeatherCatV1.10B1784,2013-03-04 22:24:00,
2013-03-04 17:29:00,60.2,42.0,30.12,NE,37,2.0,5.0,51,0.00,,,0.00,WeatherCatV1.10B1784,2013-03-04 22:29:00,
2013-03-04 17:34:00,60.5,41.2,30.12,NNE,24,3.0,4.0,49,0.00,,,0.00,WeatherCatV1.10B1784,2013-03-04 22:34:00,
2013-03-04 17:39:00,60.7,41.9,30.12,NNE,31,4.0,5.0,50,0.00,,,0.00,WeatherCatV1.10B1784,2013-03-04 22:39:00,
2013-03-04 17:44:00,60.9,41.6,30.12,NNE,31,2.0,5.0,49,0.00,,,0.00,WeatherCatV1.10B1784,2013-03-04 22:44:00,
2013-03-04 17:49:00,60.6,41.9,30.12,NNE,31,2.0,3.0,50,0.00,,,0.00,WeatherCatV1.10B1784,2013-03-04 22:49:00,
2013-03-04 17:53:00,60.4,41.7,30.12,NE,36,2.0,5.0,50,0.00,,,0.00,WeatherCatV1.10B1784,2013-03-04 22:53:00,
2013-03-04 17:58:00,59.4,41.8,30.12,NE,36,1.0,4.0,52,0.00,,,0.00,WeatherCatV1.10B1784,2013-03-04 22:58:00,
2013-03-04 18:03:00,59.4,41.8,30.13,NE,36,4.0,6.0,52,0.00,,,0.00,WeatherCatV1.10B1784,2013-03-04 23:03:00,
2013-03-04 18:08:00,59.5,40.8,30.13,NNE,32,3.0,4.0,50,0.00,,,0.00,WeatherCatV1.10B1784,2013-03-04 23:08:00,
2013-03-04 18:13:00,59.0,40.9,30.13,NNE,32,3.0,4.0,51,0.00,,,0.00,WeatherCatV1.10B1784,2013-03-04 23:13:00,
2013-03-04 18:18:00,58.3,40.8,30.13,NNE,32,3.0,5.0,52,0.00,,,0.00,WeatherCatV1.10B1784,2013-03-04 23:18:00,
2013-03-04 18:23:00,58.1,41.1,30.13,NNE,32,3.0,4.0,53,0.00,,,0.00,WeatherCatV1.10B1784,2013-03-04 23:23:00,
2013-03-04 18:28:00,57.6,40.6,30.13,NNE,32,0.0,1.0,53,0.00,,,0.00,WeatherCatV1.10B1784,2013-03-04 23:28:00,
2013-03-04 18:33:00,57.1,40.6,30.14,NNE,32,3.0,3.0,54,0.00,,,0.00,WeatherCatV1.10B1784,2013-03-04 23:33:00,
2013-03-04 18:38:00,56.8,40.3,30.14,NE,47,3.0,5.0,54,0.00,,,0.00,WeatherCatV1.10B1784,2013-03-04 23:38:00,
2013-03-04 18:43:00,56.8,40.3,30.14,NE,49,0.0,2.0,54,0.00,,,0.00,WeatherCatV1.10B1784,2013-03-04 23:43:00,
2013-03-04 18:48:00,56.7,40.2,30.14,NE,50,3.0,4.0,54,0.00,,,0.00,WeatherCatV1.10B1784,2013-03-04 23:48:00,
2013-03-04 18:53:00,56.7,41.2,30.14,NE,51,4.0,4.0,56,0.00,,,0.00,WeatherCatV1.10B1784,2013-03-04 23:53:00,
2013-03-04 18:58:00,56.6,41.1,30.14,NE,52,4.0,5.0,56,0.00,,,0.00,WeatherCatV1.10B1784,2013-03-04 23:58:00,
2013-03-04 19:03:00,56.6,41.5,30.14,ENE,63,3.0,4.0,57,0.00,,,0.00,WeatherCatV1.10B1784,2013-03-05 00:03:00,
2013-03-04 19:08:00,56.6,41.5,30.14,ENE,63,2.0,6.0,57,0.00,,,0.00,WeatherCatV1.10B1784,2013-03-05 00:08:00,
2013-03-04 19:13:00,56.6,42.4,30.14,ENE,65,3.0,4.0,59,0.00,,,0.00,WeatherCatV1.10B1784,2013-03-05 00:13:00,
2013-03-04 19:18:00,56.6,42.9,30.14,ENE,67,3.0,5.0,60,0.00,,,0.00,WeatherCatV1.10B1784,2013-03-05 00:18:00,
2013-03-04 19:23:00,56.5,43.2,30.14,ENE,78,4.0,5.0,61,0.00,,,0.00,WeatherCatV1.10B1784,2013-03-05 00:23:00,
2013-03-04 19:28:00,56.4,43.1,30.14,ENE,76,1.0,4.0,61,0.00,,,0.00,WeatherCatV1.10B1784,2013-03-05 00:28:00,
2013-03-04 19:33:00,56.4,42.7,30.14,ENE,76,1.0,4.0,60,0.00,,,0.00,WeatherCatV1.10B1784,2013-03-05 00:33:00,
2013-03-04 19:38:00,56.4,42.7,30.14,ENE,76,2.0,4.0,60,0.00,,,0.00,WeatherCatV1.10B1784,2013-03-05 00:38:00,
2013-03-04 19:43:00,56.5,43.2,30.14,ENE,76,3.0,5.0,61,0.00,,,0.00,WeatherCatV1.10B1784,2013-03-05 00:43:00,
2013-03-04 19:48:00,56.4,44.0,30.15,ENE,76,1.0,3.0,63,0.00,,,0.00,WeatherCatV1.10B1784,2013-03-05 00:48:00,
2013-03-04 19:53:00,56.4,44.4,30.15,ENE,76,1.0,3.0,64,0.00,,,0.00,WeatherCatV1.10B1784,2013-03-05 00:53:00,
2013-03-04 19:58:00,56.3,44.7,30.15,ENE,77,2.0,5.0,65,0.00,,,0.00,WeatherCatV1.10B1784,2013-03-05 00:58:00,
2013-03-04 20:03:00,56.4,44.4,30.15,ENE,77,6.0,6.0,64,0.00,,,0.00,WeatherCatV1.10B1784,2013-03-05 01:03:00,
2013-03-04 20:08:00,56.5,43.2,30.15,ENE,77,3.0,3.0,61,0.00,,,0.00,WeatherCatV1.10B1784,2013-03-05 01:08:00,
2013-03-04 20:13:00,56.4,43.5,30.15,ENE,77,2.0,3.0,62,0.00,,,0.00,WeatherCatV1.10B1784,2013-03-05 01:13:00,
2013-03-04 20:18:00,56.3,43.4,30.15,ENE,76,4.0,6.0,62,0.00,,,0.00,WeatherCatV1.10B1784,2013-03-05 01:18:00,
2013-03-04 20:23:00,56.4,44.4,30.15,ENE,76,3.0,4.0,64,0.00,,,0.00,WeatherCatV1.10B1784,2013-03-05 01:23:00,
2013-03-04 20:28:00,56.4,44.0,30.15,ENE,76,2.0,5.0,63,0.00,,,0.00,WeatherCatV1.10B1784,2013-03-05 01:28:00,
2013-03-04 20:33:00,56.5,43.6,30.15,ENE,76,3.0,3.0,62,0.00,,,0.00,WeatherCatV1.10B1784,2013-03-05 01:33:00,
2013-03-04 20:38:00,56.4,43.5,30.15,ENE,69,4.0,7.0,62,0.00,,,0.00,WeatherCatV1.10B1784,2013-03-05 01:38:00,
2013-03-04 20:43:00,56.6,42.9,30.15,ENE,68,5.0,5.0,60,0.00,,,0.00,WeatherCatV1.10B1784,2013-03-05 01:43:00,
2013-03-04 20:48:00,56.8,43.5,30.15,ENE,67,4.0,4.0,61,0.00,,,0.00,WeatherCatV1.10B1784,2013-03-05 01:48:00,
2013-03-04 20:53:00,56.9,44.0,30.15,ENE,67,4.0,5.0,62,0.00,,,0.00,WeatherCatV1.10B1784,2013-03-05 01:53:00,
2013-03-04 20:58:00,56.9,44.4,30.15,ENE,72,2.0,5.0,63,0.00,,,0.00,WeatherCatV1.10B1784,2013-03-05 01:58:00,
2013-03-04 21:03:00,56.8,44.8,30.15,ENE,65,4.0,6.0,64,0.00,,,0.00,WeatherCatV1.10B1784,2013-03-05 02:03:00,
2013-03-04 21:08:00,57.0,44.9,30.15,ENE,65,3.0,4.0,64,0.00,,,0.00,WeatherCatV1.10B1784,2013-03-05 02:08:00,
2013-03-04 21:13:00,57.0,44.9,30.15,ENE,75,3.0,5.0,64,0.00,,,0.00,WeatherCatV1.10B1784,2013-03-05 02:13:00,
2013-03-04 21:18:00,57.0,44.9,30.15,ENE,75,3.0,5.0,64,0.00,,,0.00,WeatherCatV1.10B1784,2013-03-05 02:18:00,
2013-03-04 21:23:00,56.9,44.8,30.15,ENE,76,2.0,3.0,64,0.00,,,0.00,WeatherCatV1.10B1784,2013-03-05 02:23:00,
2013-03-04 21:28:00,56.9,45.7,30.15,ENE,76,1.0,5.0,66,0.00,,,0.00,WeatherCatV1.10B1784,2013-03-05 02:28:00,
2013-03-04 21:33:00,57.0,45.8,30.16,ENE,76,1.0,2.0,66,0.00,,,0.00,WeatherCatV1.10B1784,2013-03-05 02:33:00,
2013-03-04 21:38:00,56.9,45.3,30.16,ENE,75,2.0,3.0,65,0.00,,,0.00,WeatherCatV1.10B1784,2013-03-05 02:38:00,
2013-03-04 21:43:00,56.9,46.1,30.16,ENE,76,3.0,3.0,67,0.00,,,0.00,WeatherCatV1.10B1784,2013-03-05 02:43:00,
2013-03-04 21:48:00,56.9,46.1,30.16,ENE,76,3.0,4.0,67,0.00,,,0.00,WeatherCatV1.10B1784,2013-03-05 02:48:00,
2013-03-04 21:53:00,56.9,46.4,30.16,ENE,76,0.0,3.0,68,0.00,,,0.00,WeatherCatV1.10B1784,2013-03-05 02:53:00,
2013-03-04 21:58:00,57.0,46.2,30.16,ENE,76,0.0,2.0,67,0.00,,,0.00,WeatherCatV1.10B1784,2013-03-05 02:58:00,
2013-03-04 22:03:00,56.9,46.1,30.16,ENE,76,0.0,3.0,67,0.00,,,0.00,WeatherCatV1.10B1784,2013-03-05 03:03:00,
2013-03-04 22:08:00,56.9,46.4,30.16,ENE,76,0.0,5.0,68,0.00,,,0.00,WeatherCatV1.10B1784,2013-03-05 03:08:00,
2013-03-04 22:13:00,57.0,46.5,30.16,ENE,76,0.0,0.0,68,0.00,,,0.00,WeatherCatV1.10B1784,2013-03-05 03:13:00,
2013-03-04 22:18:00,56.9,46.4,30.16,ENE,76,0.0,1.0,68,0.00,,,0.00,WeatherCatV1.10B1784,2013-03-05 03:18:00,
2013-03-04 22:23:00,56.7,45.9,30.16,ENE,76,0.0,2.0,67,0.00,,,0.00,WeatherCatV1.10B1784,2013-03-05 03:23:00,
2013-03-04 22:28:00,56.7,46.3,30.16,ENE,76,0.0,0.0,68,0.00,,,0.00,WeatherCatV1.10B1784,2013-03-05 03:28:00,
2013-03-04 22:33:00,56.6,46.5,30.15,ENE,76,0.0,0.0,69,0.00,,,0.00,WeatherCatV1.10B1784,2013-03-05 03:33:00,
2013-03-04 22:38:00,56.5,46.5,30.15,ENE,76,1.0,1.0,69,0.00,,,0.00,WeatherCatV1.10B1784,2013-03-05 03:38:00,
2013-03-04 22:43:00,56.5,46.5,30.15,ENE,76,0.0,0.0,69,0.00,,,0.00,WeatherCatV1.10B1784,2013-03-05 03:43:00,
2013-03-04 22:48:00,56.4,46.4,30.15,ENE,76,0.0,2.0,69,0.00,,,0.00,WeatherCatV1.10B1784,2013-03-05 03:48:00,
2013-03-04 22:53:00,56.3,46.6,30.15,ENE,76,2.0,2.0,70,0.00,,,0.00,WeatherCatV1.10B1784,2013-03-05 03:53:00,
2013-03-04 22:58:00,56.3,46.6,30.15,ENE,76,0.0,0.0,70,0.00,,,0.00,WeatherCatV1.10B1784,2013-03-05 03:58:00,
2013-03-04 23:03:00,56.2,46.5,30.15,ENE,76,0.0,1.0,70,0.00,,,0.00,WeatherCatV1.10B1784,2013-03-05 04:03:00,
2013-03-04 23:08:00,56.2,46.9,30.15,ENE,76,2.0,2.0,71,0.00,,,0.00,WeatherCatV1.10B1784,2013-03-05 04:08:00,
2013-03-04 23:13:00,56.2,46.9,30.15,ENE,76,0.0,2.0,71,0.00,,,0.00,WeatherCatV1.10B1784,2013-03-05 04:13:00,
2013-03-04 23:18:00,56.3,47.0,30.14,ENE,76,0.0,1.0,71,0.00,,,0.00,WeatherCatV1.10B1784,2013-03-05 04:18:00,
2013-03-04 23:23:00,56.4,47.1,30.14,ENE,76,1.0,2.0,71,0.00,,,0.00,WeatherCatV1.10B1784,2013-03-05 04:23:00,
2013-03-04 23:28:00,56.5,47.2,30.14,ENE,76,0.0,1.0,71,0.00,,,0.00,WeatherCatV1.10B1784,2013-03-05 04:28:00,
2013-03-04 23:33:00,56.4,47.1,30.14,ENE,76,0.0,0.0,71,0.00,,,0.00,WeatherCatV1.10B1784,2013-03-05 04:33:00,
2013-03-04 23:38:00,56.3,47.0,30.14,ENE,76,0.0,0.0,71,0.00,,,0.00,WeatherCatV1.10B1784,2013-03-05 04:38:00,
2013-03-04 23:43:00,56.2,46.9,30.14,ENE,76,0.0,1.0,71,0.00,,,0.00,WeatherCatV1.10B1784,2013-03-05 04:43:00,
2013-03-04 23:48:00,56.1,47.2,30.14,ENE,76,0.0,2.0,72,0.00,,,0.00,WeatherCatV1.10B1784,2013-03-05 04:48:00,
2013-03-04 23:53:00,56.1,47.2,30.14,ENE,76,2.0,2.0,72,0.00,,,0.00,WeatherCatV1.10B1784,2013-03-05 04:53:00,
2013-03-04 23:58:00,56.4,47.5,30.14,ENE,76,0.0,3.0,72,0.00,,,0.00,WeatherCatV1.10B1784,2013-03-05 04:58:00,